AirNav   Air Wisconsin Up To $57,000 Bonus
 
 1762 users online  

KDRP Delta Regional Airport
Colt, Arkansas, USA

GOING TO COLT?


FAA INFORMATION EFFECTIVE 08 SEPTEMBER 2022

Location

FAA Identifier: DRP
Lat/Long: 35-07-12.1880N 090-49-35.4050W
35-07.203133N 090-49.590083W
35.1200522,-90.8265014
(estimated)
Elevation: 238.8 ft. / 72.8 m (surveyed)
Variation: 01W (2015)
From city: 1 mile SW of COLT, AR
Time zone: UTC -5 (UTC -6 during Standard Time)
Zip code: 72326

Airport Operations

Airport use: Open to the public
Activation date: 04/2014
Control tower: no
ARTCC: MEMPHIS CENTER
FSS: JONESBORO FLIGHT SERVICE STATION
NOTAMs facility: JBR (NOTAM-D service available)
Attendance: UNATNDD
Wind indicator: lighted
Segmented circle: yes
Lights: ACTVT REIL RWYS 18 & 36; HIRL RWY 18/36 - CTAF. PAPI RWYS 18 & 36 OPERS CONTINUOUSLY.
Beacon: white-green (lighted land airport)
Operates sunset to sunrise.

Airport Communications

CTAF/UNICOM: 123.0
  • APCH/DEP SVC PRVDD BY MEMPHIS ARTCC ON FREQS 135.3/335.8 (BRINKLEY RCAG).

Nearby radio navigation aids

VOR radial/distance  VOR name  Freq  Var
GQEr227/21.8GILMORE VOR/DME113.0004E
UJMr346/33.5MARVELL VOR/DME109.6001E

Airport Services

Fuel available: 100LL
100LL:FUEL AVBL SELF SERVE AFT HRS WITH CREDIT CARD
Parking: tiedowns

Runway Information

Runway 18/36

Dimensions: 5003 x 75 ft. / 1525 x 23 m
Surface: asphalt, in good condition
Weight bearing capacity: 
Single wheel: 30.0
Runway edge lights: high intensity
RUNWAY 18  RUNWAY 36
Latitude: 35-07.615412N35-06.790852N
Longitude: 090-49.584142W090-49.596037W
Elevation: 238.8 ft.228.7 ft.
Traffic pattern: leftleft
Runway heading: 182 magnetic, 181 true002 magnetic, 001 true
Markings: precision, in good conditionprecision, in good condition
Visual slope indicator: 2-light PAPI on left (3.00 degrees glide path)2-light PAPI on left (3.00 degrees glide path)
Runway end identifier lights: yesyes
Touchdown point: yes, no lightsyes, no lights

Airport Ownership and Management from official FAA records

Ownership: Publicly-owned
Owner: DELTA REGIONAL AIRPORT AUTHORITY
PO BOX 248, 8535 MAIN STREET
COLT, AR 72326
Phone 870-208-6607
Manager: SHANNON HOBBS
P. O. BOX 267
COLT, AR 72326
Phone 870-633-6083

Airport Operational Statistics

Aircraft based on the field: 16
Single engine airplanes: 16
    
Aircraft operations: avg 59/week *
65% local general aviation
32% transient general aviation
3% military
* for 12-month period ending 30 September 2020

Additional Remarks

FOR CD CTC MEMPHIS ARTCC AT 901-368-8453/8449.

Instrument Procedures

NOTE: All procedures below are presented as PDF files. If you need a reader for these files, you should download the free Adobe Reader.

NOT FOR NAVIGATION. Please procure official charts for flight.
FAA instrument procedures published for use from 8 September 2022 at 0901Z to 6 October 2022 at 0900Z.

 
IAPs - Instrument Approach Procedures
RNAV (GPS) RWY 18   download (190KB)
RNAV (GPS) RWY 36   download (188KB)
NOTE: Special Take-Off Minimums/Departure Procedures apply   download

Other nearby airports with instrument procedures:

6M7 - Marianna/Lee County Airport-Steve Edwards Field (20 nm S)
M36 - Frank Federer Memorial Airport (22 nm SW)
M60 - Woodruff County Airport (24 nm NW)
KAWM - West Memphis Municipal Airport (29 nm E)
KHEE - Thompson-Robbins Airport (33 nm S)
 
Loc | Ops | Rwys | IFR | FBO | Links
Com | Nav | Svcs | Stats | Notes
Aerial photo
No photo
 
Airport distance calculator
Flying to Delta Regional Airport? Find the distance to fly.

From to KDRP

Sunrise and sunset
Times for 26-Sep-2022
 Local
(UTC-5)
 Zulu
(UTC)
Morning civil twilight06:3011:30
Sunrise06:5511:55
Sunset18:5423:54
Evening civil twilight19:1900:19

Current date and time
Zulu (UTC)  26-Sep-2022 18:57:51
Local (UTC-5)  26-Sep-2022 13:57:51
 
METAR
KAWM 
29nm E 
261853Z AUTO 34008G16KT 310V010 10SM CLR 29/03 A3003 RMK AO2 SLP165 T02890033
KUTA 
35nm SE 
261855Z AUTO 33016G22KT 10SM CLR 28/05 A3004 RMK AO2 T02850050 $
KM19 
35nm NW 
261756Z AUTO 35011G18KT 10SM CLR 25/04 A3009 RMK AO2 SLP186 T02500039 10250 20111 58006
KMEM 
42nm E 
261854Z 34008G21KT 10SM CLR 28/04 A3004 RMK AO2 SLP168 T02830039
KJBR 
44nm N 
261853Z AUTO 35010G19KT 10SM CLR 26/02 A3006 RMK AO2 SLP178 T02610022 $
KSRC 
45nm W 
261756Z AUTO 01010KT 320V030 10SM CLR 27/03 A3009 RMK AO2 SLP186 T02670033 10272 20117 58008
KSGT 
48nm SW 
261756Z AUTO 34009KT 10SM CLR 27/07 A3008 RMK AO2 SLP186 T02670072 10267 20133 58006
KNQA 
49nm E 
261850Z 35008KT 10SM CLR 25/05 A3003
TAF
KMEM 
42nm E 
261720Z 2618/2724 02010G18KT P6SM SKC FM270100 02003KT P6SM SKC FM271500 01007KT P6SM SKC
KJBR 
44nm N 
261720Z 2618/2718 34010G18KT P6SM SKC FM270100 VRB03KT P6SM SKC FM271500 31006KT P6SM SKC
NOTAMs
Click for the latest NOTAMs
NOTAMs are issued by the DoD/FAA and will open in a separate window not controlled by AirNav.

 

 
 

FBO, Fuel Providers, and Aircraft Ground Support

  
 Business Name 
 
 Contact 
 
 Services / Description 
 
Fuel Prices
 
Comments
  
Delta Regional Airport 901-490-5165
no information available

If you are affiliated with Delta Regional Airport and would like to show here your services, contact info, web link, logo, and more, click here
100LL Jet A
SS $6.95 $5.89 
 Updated 25-Aug-2022
 
   write
SS=Self service
Update Fuel Prices
 

Would you like to see your business listed on this page?

 If your business provides an interesting product or service to pilots, flight crews, aircraft, or users of the Delta Regional Airport, you should consider listing it here.  To start the listing process, click on the button below
 
Add a business
 

Other Pages about Delta Regional Airport

Update a link
 
Copyright © AirNav, LLC. All rights reserved. Privacy Policy  Contact